| time (UTC) | temp F | wind direction | speed knots | gust knots | rain 1hr in | rain 24hr in | rain mn in | humidity % | barometer mb |
| 20260509201305 | 80 | 57 | 3.5 | 4.3 | 0.00 | 0.00 | 0.00 | 84 | 1009.9 |
| 20260509200303 | 79 | 67 | 1.7 | 2.6 | 0.00 | 0.00 | 0.00 | 84 | 1010.0 |
| 20260509195259 | 79 | 67 | 2.6 | 4.3 | 0.00 | 0.00 | 0.00 | 84 | 1010.2 |
| 20260509194254 | 79 | 67 | 3.5 | 4.3 | 0.00 | 0.00 | 0.00 | 85 | 1010.2 |
| 20260509193310 | 79 | 63 | 2.6 | 3.5 | 0.00 | 0.00 | 0.00 | 85 | 1010.3 |
| 20260509192310 | 79 | 86 | 2.6 | 3.5 | 0.00 | 0.00 | 0.00 | 84 | 1010.5 |
| 20260509191306 | 78 | 80 | 2.6 | 4.3 | 0.00 | 0.00 | 0.00 | 85 | 1010.5 |
| 20260509190302 | 78 | 83 | 3.5 | 5.2 | 0.00 | 0.00 | 0.00 | 85 | 1010.7 |
| 20260509185301 | 78 | 91 | 3.5 | 5.2 | 0.00 | 0.00 | 0.00 | 85 | 1010.8 |
| 20260509184255 | 78 | 91 | 3.5 | 6.1 | 0.00 | 0.00 | 0.00 | 85 | 1010.8 |
| 20260509183309 | 78 | 90 | 2.6 | 5.2 | 0.00 | 0.00 | 0.00 | 85 | 1011.2 |
| 20260509182306 | 77 | 90 | 5.2 | 7.0 | 0.00 | 0.00 | 0.00 | 85 | 1011.2 |
| 20260509181303 | 77 | 103 | 3.5 | 5.2 | 0.00 | 0.00 | 0.00 | 85 | 1011.3 |
| 20260509180259 | 76 | 90 | 2.6 | 3.5 | 0.00 | 0.00 | 0.00 | 85 | 1011.4 |
| 20260509175254 | 76 | 74 | 3.5 | 4.3 | 0.00 | 0.00 | 0.00 | 84 | 1011.5 |
| 20260509174313 | 76 | 80 | 4.3 | 5.2 | 0.00 | 0.00 | 0.00 | 84 | 1011.6 |
| 20260509173309 | 76 | 85 | 3.5 | 5.2 | 0.00 | 0.00 | 0.00 | 84 | 1011.6 |
| 20260509172306 | 76 | 46 | 4.3 | 4.3 | 0.00 | 0.00 | 0.00 | 84 | 1011.7 |
| 20260509171305 | 76 | 34 | 5.2 | 7.0 | 0.00 | 0.00 | 0.00 | 84 | 1011.6 |
| 20260509170301 | 76 | 68 | 4.3 | 5.2 | 0.00 | 0.00 | 0.00 | 84 | 1011.4 |
| 20260509165257 | 75 | 83 | 4.3 | 6.1 | 0.00 | 0.00 | 0.00 | 84 | 1011.4 |
| 20260509164313 | 75 | 63 | 2.6 | 3.5 | 0.00 | 0.00 | 0.00 | 84 | 1011.8 |
| 20260509163312 | 75 | 39 | 2.6 | 4.3 | 0.00 | 0.00 | 0.00 | 84 | 1012.1 |
| 20260509162307 | 75 | 38 | 2.6 | 3.5 | 0.00 | 0.00 | 0.00 | 84 | 1012.1 |
| 20260509161303 | 75 | 36 | 3.5 | 4.3 | 0.00 | 0.00 | 0.00 | 84 | 1012.3 |
| 20260509160303 | 76 | 34 | 2.6 | 3.5 | 0.00 | 0.00 | 0.00 | 84 | 1012.4 |
| 20260509155259 | 76 | 257 | 0.0 | 0.0 | 0.00 | 0.00 | 0.00 | 84 | 1012.3 |
| 20260509154314 | 76 | 219 | 0.0 | 0.0 | 0.00 | 0.00 | 0.00 | 84 | 1012.4 |
| 20260509153308 | 75 | 217 | 0.0 | 1.7 | 0.00 | 0.00 | 0.00 | 84 | 1012.3 |
| 20260509152308 | 75 | 207 | 0.9 | 3.5 | 0.00 | 0.00 | 0.00 | 84 | 1012.0 |
| 20260509151304 | 75 | 71 | 2.6 | 2.6 | 0.00 | 0.00 | 0.00 | 84 | 1011.9 |
| 20260509150300 | 75 | 340 | 1.7 | 3.5 | 0.00 | 0.00 | 0.00 | 84 | 1011.8 |
| 20260509145258 | 75 | 337 | 2.6 | 3.5 | 0.00 | 0.00 | 0.00 | 84 | 1011.8 |
| 20260509144254 | 75 | 336 | 1.7 | 4.3 | 0.00 | 0.00 | 0.00 | 84 | 1011.4 |
| 20260509143310 | 75 | 314 | 1.7 | 3.5 | 0.00 | 0.00 | 0.00 | 84 | 1011.2 |
| 20260509142310 | 75 | 183 | 1.7 | 3.5 | 0.00 | 0.00 | 0.00 | 84 | 1010.7 |
| 20260509141306 | 74 | 101 | 0.9 | 4.3 | 0.00 | 0.00 | 0.00 | 84 | 1010.8 |
| 20260509140302 | 74 | 163 | 1.7 | 3.5 | 0.00 | 0.00 | 0.00 | 84 | 1010.9 |
| 20260509135256 | 74 | 112 | 0.9 | 3.5 | 0.00 | 0.00 | 0.00 | 84 | 1011.0 |
| 20260509134256 | 74 | 98 | 1.7 | 3.5 | 0.00 | 0.00 | 0.00 | 84 | 1011.5 |
| 20260509133312 | 74 | 174 | 1.7 | 3.5 | 0.00 | 0.00 | 0.00 | 84 | 1011.7 |
| 20260509132307 | 74 | 150 | 0.9 | 2.6 | 0.00 | 0.00 | 0.00 | 84 | 1011.8 |
| 20260509131305 | 73 | 134 | 0.0 | 1.7 | 0.00 | 0.00 | 0.00 | 84 | 1011.7 |
| 20260509130300 | 73 | 126 | 0.0 | 0.0 | 0.00 | 0.00 | 0.00 | 84 | 1011.9 |
| 20260509125255 | 73 | 126 | 0.0 | 0.0 | 0.00 | 0.00 | 0.00 | 84 | 1012.1 |
| 20260509124255 | 73 | 126 | 0.0 | 0.0 | 0.00 | 0.00 | 0.00 | 84 | 1012.0 |
| 20260509123310 | 73 | 126 | 0.0 | 0.0 | 0.00 | 0.00 | 0.00 | 84 | 1012.0 |
| 20260509122306 | 73 | 126 | 0.0 | 0.0 | 0.00 | 0.00 | 0.00 | 84 | 1011.9 |
| 20260509121302 | 73 | 126 | 0.0 | 0.0 | 0.00 | 0.00 | 0.00 | 84 | 1011.8 |
| 20260509120302 | 73 | 126 | 0.0 | 0.0 | 0.00 | 0.00 | 0.00 | 84 | 1011.7 |
| 20260509115257 | 73 | 121 | 0.0 | 1.7 | 0.00 | 0.00 | 0.00 | 84 | 1011.6 |
| 20260509114312 | 73 | 121 | 0.9 | 3.5 | 0.00 | 0.00 | 0.00 | 84 | 1011.2 |
| 20260509113309 | 73 | 121 | 1.7 | 2.6 | 0.00 | 0.00 | 0.00 | 84 | 1011.1 |
| 20260509112307 | 73 | 121 | 0.0 | 3.5 | 0.00 | 0.00 | 0.00 | 84 | 1010.9 |
| 20260509111301 | 73 | 101 | 0.0 | 0.0 | 0.00 | 0.00 | 0.00 | 84 | 1010.5 |
| 20260509110257 | 73 | 101 | 0.0 | 0.0 | 0.00 | 0.00 | 0.00 | 84 | 1010.3 |
| 20260509105255 | 73 | 101 | 0.0 | 0.9 | 0.00 | 0.00 | 0.00 | 84 | 1010.6 |
| 20260509104311 | 73 | 101 | 0.0 | 0.9 | 0.00 | 0.00 | 0.00 | 84 | 1010.8 |
| 20260509103307 | 73 | 101 | 0.0 | 0.9 | 0.00 | 0.00 | 0.00 | 84 | 1010.9 |
| 20260509102307 | 73 | 101 | 0.9 | 0.9 | 0.00 | 0.00 | 0.00 | 84 | 1010.9 |
| 20260509101303 | 73 | 101 | 0.0 | 0.0 | 0.00 | 0.00 | 0.00 | 84 | 1011.1 |
| 20260509100259 | 73 | 101 | 0.0 | 0.0 | 0.00 | 0.00 | 0.00 | 84 | 1011.2 |
| 20260509095259 | 73 | 101 | 0.0 | 0.0 | 0.00 | 0.00 | 0.00 | 84 | 1011.0 |
| 20260509094255 | 73 | 101 | 0.0 | 2.6 | 0.00 | 0.00 | 0.00 | 84 | 1010.9 |
| 20260509093311 | 73 | 106 | 0.0 | 0.9 | 0.00 | 0.00 | 0.00 | 84 | 1011.0 |
| 20260509092307 | 73 | 106 | 0.0 | 0.0 | 0.00 | 0.00 | 0.00 | 84 | 1011.0 |
| 20260509091307 | 73 | 106 | 0.0 | 0.0 | 0.00 | 0.00 | 0.00 | 84 | 1011.0 |
| 20260509090303 | 73 | 106 | 0.0 | 0.0 | 0.00 | 0.00 | 0.00 | 84 | 1011.1 |
| 20260509085259 | 73 | 106 | 0.0 | 0.9 | 0.00 | 0.00 | 0.00 | 84 | 1011.1 |
| 20260509084257 | 73 | 106 | 0.0 | 0.9 | 0.00 | 0.00 | 0.00 | 84 | 1011.0 |
| 20260509083313 | 73 | 106 | 0.0 | 1.7 | 0.00 | 0.00 | 0.00 | 84 | 1011.0 |
| 20260509082308 | 73 | 105 | 0.0 | 1.7 | 0.00 | 0.00 | 0.00 | 84 | 1011.3 |
| 20260509081304 | 73 | 104 | 0.0 | 0.9 | 0.00 | 0.00 | 0.00 | 84 | 1011.3 |
| 20260509080304 | 73 | 104 | 0.0 | 3.5 | 0.00 | 0.00 | 0.00 | 84 | 1011.3 |
| 20260509075300 | 73 | 106 | 0.9 | 2.6 | 0.00 | 0.00 | 0.00 | 84 | 1011.2 |
| 20260509074256 | 73 | 103 | 1.7 | 3.5 | 0.00 | 0.00 | 0.00 | 84 | 1011.0 |
| 20260509073256 | 73 | 102 | 1.7 | 3.5 | 0.00 | 0.00 | 0.00 | 84 | 1010.9 |
| 20260509072312 | 73 | 140 | 0.9 | 2.6 | 0.00 | 0.00 | 0.00 | 85 | 1011.1 |
| 20260509071308 | 73 | 144 | 0.9 | 2.6 | 0.00 | 0.00 | 0.00 | 85 | 1011.3 |
| 20260509070308 | 72 | 133 | 1.7 | 2.6 | 0.00 | 0.00 | 0.00 | 85 | 1011.4 |
| 20260509065301 | 72 | 149 | 0.9 | 2.6 | 0.00 | 0.00 | 0.00 | 85 | 1011.3 |
| 20260509064256 | 72 | 149 | 0.0 | 1.7 | 0.00 | 0.00 | 0.00 | 84 | 1011.2 |
| 20260509063312 | 72 | 149 | 0.9 | 2.6 | 0.00 | 0.00 | 0.00 | 85 | 1011.4 |
| 20260509062311 | 72 | 132 | 0.9 | 3.5 | 0.00 | 0.00 | 0.00 | 85 | 1011.4 |
| 20260509061305 | 72 | 175 | 0.9 | 3.5 | 0.00 | 0.00 | 0.00 | 85 | 1011.5 |
| 20260509060300 | 72 | 161 | 0.9 | 3.5 | 0.00 | 0.00 | 0.00 | 85 | 1011.6 |
| 20260509055300 | 72 | 101 | 0.9 | 5.2 | 0.00 | 0.00 | 0.00 | 85 | 1011.6 |
| 20260509054254 | 72 | 185 | 0.9 | 3.5 | 0.00 | 0.00 | 0.00 | 85 | 1011.6 |
| 20260509053310 | 72 | 88 | 1.7 | 5.2 | 0.00 | 0.00 | 0.00 | 85 | 1011.7 |
| 20260509052307 | 72 | 121 | 1.7 | 5.2 | 0.00 | 0.00 | 0.00 | 85 | 1011.7 |
| 20260509051305 | 72 | 189 | 1.7 | 5.2 | 0.00 | 0.00 | 0.00 | 85 | 1011.8 |
| 20260509050259 | 72 | 184 | 0.9 | 7.0 | 0.00 | 0.00 | 0.00 | 85 | 1011.8 |
| 20260509045255 | 72 | 115 | 2.6 | 7.0 | 0.00 | 0.00 | 0.00 | 85 | 1011.7 |
| 20260509044255 | 72 | 105 | 3.5 | 7.0 | 0.00 | 0.00 | 0.00 | 85 | 1011.5 |
| 20260509043311 | 72 | 129 | 1.7 | 4.3 | 0.00 | 0.00 | 0.00 | 85 | 1011.6 |
| 20260509042307 | 72 | 119 | 3.5 | 7.0 | 0.00 | 0.00 | 0.00 | 85 | 1011.8 |
| 20260509041306 | 72 | 144 | 0.9 | 5.2 | 0.00 | 0.00 | 0.00 | 86 | 1011.8 |
| 20260509040302 | 72 | 150 | 0.9 | 5.2 | 0.00 | 0.00 | 0.00 | 86 | 1011.6 |
| 20260509035257 | 73 | 142 | 2.6 | 6.1 | 0.00 | 0.00 | 0.00 | 86 | 1011.4 |
| 20260509034312 | 73 | 207 | 1.7 | 6.1 | 0.00 | 0.00 | 0.00 | 86 | 1011.4 |
| 20260509033311 | 73 | 182 | 1.7 | 7.0 | 0.00 | 0.00 | 0.00 | 86 | 1011.1 |
| 20260509032307 | 73 | 159 | 2.6 | 6.1 | 0.00 | 0.00 | 0.00 | 86 | 1011.2 |
| 20260509031302 | 73 | 205 | 1.7 | 10.4 | 0.00 | 0.00 | 0.00 | 86 | 1011.2 |
| 20260509030302 | 73 | 131 | 2.6 | 7.0 | 0.00 | 0.00 | 0.00 | 86 | 1011.2 |
| 20260509025258 | 73 | 130 | 3.5 | 7.8 | 0.00 | 0.00 | 0.00 | 86 | 1010.9 |
| 20260509024254 | 73 | 128 | 2.6 | 7.8 | 0.00 | 0.00 | 0.00 | 86 | 1010.8 |
| 20260509023309 | 73 | 175 | 3.5 | 8.7 | 0.00 | 0.00 | 0.00 | 86 | 1010.8 |
| 20260509022308 | 74 | 103 | 2.6 | 9.6 | 0.00 | 0.00 | 0.00 | 86 | 1010.6 |
| 20260509021302 | 74 | 155 | 3.5 | 7.0 | 0.00 | 0.00 | 0.00 | 85 | 1010.6 |
| 20260509020259 | 74 | 175 | 2.6 | 6.1 | 0.00 | 0.00 | 0.00 | 85 | 1010.6 |
| 20260509015258 | 74 | 111 | 0.9 | 6.1 | 0.00 | 0.00 | 0.00 | 85 | 1010.4 |
| 20260509014253 | 74 | 101 | 1.7 | 7.8 | 0.00 | 0.00 | 0.00 | 85 | 1010.5 |
| 20260509013310 | 75 | 148 | 0.9 | 6.1 | 0.00 | 0.00 | 0.00 | 85 | 1010.5 |
| 20260509012309 | 75 | 131 | 0.9 | 3.5 | 0.00 | 0.00 | 0.00 | 85 | 1010.5 |
| 20260509011304 | 75 | 169 | 0.9 | 3.5 | 0.00 | 0.00 | 0.00 | 84 | 1010.4 |
| 20260509010259 | 75 | 94 | 1.7 | 6.1 | 0.00 | 0.00 | 0.00 | 84 | 1010.5 |
| 20260509005255 | 75 | 184 | 1.7 | 5.2 | 0.00 | 0.00 | 0.00 | 84 | 1010.7 |
| 20260509004255 | 75 | 141 | 1.7 | 6.1 | 0.00 | 0.00 | 0.00 | 84 | 1010.6 |
| 20260509003309 | 75 | 136 | 2.6 | 7.0 | 0.00 | 0.00 | 0.00 | 84 | 1010.4 |
| 20260509002306 | 75 | 146 | 3.5 | 7.0 | 0.00 | 0.00 | 0.00 | 83 | 1010.2 |
| 20260509001306 | 76 | 178 | 3.5 | 7.8 | 0.00 | 0.00 | 0.00 | 84 | 1010.3 |
| 20260509000303 | 76 | 118 | 4.3 | 7.8 | 0.00 | 0.00 | 0.00 | 84 | 1010.5 |
| 20260508235256 | 76 | 149 | 1.7 | 5.2 | 0.00 | 0.00 | 0.00 | 84 | 1010.8 |
| 20260508234255 | 76 | 172 | 1.7 | 6.1 | 0.00 | 0.00 | 0.00 | 84 | 1010.8 |
| 20260508233311 | 76 | 115 | 1.7 | 3.5 | 0.00 | 0.00 | 0.00 | 84 | 1010.8 |
| 20260508232307 | 76 | 135 | 0.9 | 3.5 | 0.00 | 0.00 | 0.00 | 84 | 1010.9 |
| 20260508231303 | 76 | 115 | 0.9 | 3.5 | 0.00 | 0.00 | 0.00 | 84 | 1010.8 |
| 20260508230303 | 76 | 105 | 2.6 | 5.2 | 0.00 | 0.00 | 0.00 | 84 | 1010.7 |
| 20260508225259 | 76 | 139 | 1.7 | 6.1 | 0.00 | 0.00 | 0.00 | 84 | 1010.5 |
| 20260508224254 | 76 | 103 | 3.5 | 7.0 | 0.00 | 0.00 | 0.00 | 84 | 1010.5 |
| 20260508223255 | 76 | 188 | 0.9 | 6.1 | 0.00 | 0.00 | 0.00 | 84 | 1010.7 |
| 20260508222310 | 76 | 119 | 3.5 | 7.0 | 0.00 | 0.00 | 0.00 | 84 | 1010.7 |
| 20260508221304 | 76 | 91 | 3.5 | 6.1 | 0.00 | 0.00 | 0.00 | 84 | 1010.7 |
| 20260508220301 | 76 | 119 | 3.5 | 5.2 | 0.00 | 0.00 | 0.00 | 83 | 1010.7 |
| 20260508215300 | 76 | 97 | 3.5 | 5.2 | 0.00 | 0.00 | 0.00 | 83 | 1010.7 |
| 20260508214254 | 76 | 88 | 2.6 | 5.2 | 0.00 | 0.00 | 0.00 | 83 | 1010.8 |
| 20260508213310 | 76 | 311 | 0.9 | 1.7 | 0.00 | 0.00 | 0.00 | 83 | 1010.8 |
| 20260508212310 | 76 | 311 | 0.9 | 1.7 | 0.00 | 0.00 | 0.00 | 83 | 1010.7 |
| 20260508211304 | 75 | 311 | 1.7 | 2.6 | 0.00 | 0.00 | 0.00 | 83 | 1010.9 |
| 20260508210300 | 75 | 311 | 0.9 | 2.6 | 0.00 | 0.00 | 0.00 | 83 | 1011.2 |
| 20260508205301 | 75 | 311 | 1.7 | 2.6 | 0.00 | 0.00 | 0.00 | 82 | 1011.4 |
| 20260508204257 | 75 | 310 | 1.7 | 2.6 | 0.00 | 0.00 | 0.00 | 82 | 1011.4 |
| 20260508203313 | 75 | 310 | 1.7 | 2.6 | 0.00 | 0.00 | 0.00 | 82 | 1011.5 |
| 20260508202308 | 75 | 310 | 1.7 | 3.5 | 0.00 | 0.00 | 0.00 | 83 | 1011.6 |